Regional Weather Roundup
Issued by NWS

Home | Current Version | Previous Version | Graphics & Text | Print | Product List | Glossary On
Versions: 1 2 3 4 5 6 7 8 9 10 11 12 13 14 15 16 17 18 19 20 21 22 23 24 25 26 27
000
ASUS45 KTFX 050310
RWRMT
MONTANA REGIONAL WEATHER ROUNDUP
NATIONAL WEATHER SERVICE GREAT FALLS MT
900 PM MDT WED MAY 04 2016

NOTE: "FAIR" INDICATES FEW OR NO CLOUDS BELOW 12000 FEET WITH NO
SIGNIFICANT WEATHER AND/OR OBSTRUCTIONS TO VISIBILITY.

MTZ001>007-043-050400-
WEST OF THE DIVIDE

CITY           SKY/WX    TMP DP  RH WIND       PRES   REMARKS
KALISPELL      CLOUDY    63  46  54 VRB3      29.85S
MISSOULA       CLOUDY    65  43  44 N5        29.86S
BUTTE          CLOUDY    61  32  33 S5        30.00S
MULLAN PASS    MOCLDY    56  36  47 VRB5      29.99F
ANACONDA         N/A     61  34  36 W5        29.96S
DEER LODGE       N/A     61  37  41 W3        29.95S
EUREKA           N/A     70  39  32 CALM      29.84S
HAMILTON         N/A     68  39  34 NW3       29.86S
LIBBY            N/A     68  46  45 NW3       29.85R
PLAINS           N/A     69  52  54 CALM      29.85S
THOMPSON FALLS   N/A     70  47  43 CALM      29.88S
$$

MTZ008-052>055-050400-
SOUTHWEST MONTANA

CITY           SKY/WX    TMP DP  RH WIND       PRES   REMARKS
BOZEMAN        CLOUDY    67  31  26 SW7       29.95S
DILLON         CLOUDY    65  25  22 S14       29.97S
ENNIS          CLEAR     61  27  27 SE12      30.06S
THREE FORKS      N/A     63   5  10 CALM      29.94S
TWIN BRIDGES     N/A     67  27  22 E12       29.96F
$$

MTZ009-010-012-014-046-048-049-054-050400-
EAST SLOPES AND CENTRAL MONTANA

CITY           SKY/WX    TMP DP  RH WIND       PRES   REMARKS
CUT BANK         N/A     59  37  44 W10       29.87F
GREAT FALLS    CLEAR     64  39  39 W5        29.87F
MALMSTROM AFB  PTCLDY    72  35  25 W3        29.87S
HELENA         PTCLDY    73  30  20 SW3       29.90R
CHOTEAU          N/A     68  37  32 NE3       29.89F
CONRAD           N/A     65  45  48 W2        29.91F
$$

MTZ011-013-016-021-045-047-050-051-050400-
NORTH CENTRAL MONTANA

CITY           SKY/WX    TMP DP  RH WIND       PRES   REMARKS
HAVRE          CLEAR     61  49  64 S10       29.81S
LEWISTOWN      CLOUDY    63  36  36 S9        29.91R
N BAR RANCH      N/A     57  37  47 W6        29.96R
$$

MTZ017>020-022>027-061-062-050400-
NORTHEAST MONTANA

CITY           SKY/WX    TMP DP  RH WIND       PRES   REMARKS
GLASGOW        CLEAR     69  41  36 SE7       29.82S
JORDAN           N/A     66  48  52 CALM      29.85R
SIDNEY         CLEAR     68  39  34 S6        29.86S
WOLF POINT     CLEAR     66  47  50 NE5       29.83R
POPLAR           N/A     79  37  22 E5        29.84S
SCOBEY           N/A     69  36  29 SW3       29.86S
$$

MTZ028>42-056>058-050400-
SOUTHCENTRAL AND SOUTHEAST MONTANA

CITY           SKY/WX    TMP DP  RH WIND       PRES   REMARKS
BAKER          CLEAR     63  44  50 S14       29.95R
BILLINGS       CLOUDY    74  39  28 SE6       29.91S
LIVINGSTON     CLOUDY    61  28  28 W6        29.96R
MILES CITY     CLOUDY    75  36  24 S5        29.88R
EKALAKA          N/A     58  41  53 SE7       29.97R
FORSYTH          N/A     66  43  42 SE3       29.88S
LAUREL           N/A     70  39  32 CALM      29.91F
ROUNDUP          N/A     75  30  19 CALM      29.83S
$$

REGIONAL REPORTS...DAKOTAS

CITY           SKY/WX    TMP DP  RH WIND       PRES   REMARKS
WILLISTON      CLEAR     62  42  47 CALM      29.85S
MINOT          CLEAR     75  38  26 SW5       29.87R
DICKINSON      CLEAR     56  40  55 S8        29.93R
BEACH            N/A     59  39  47 S10       29.96R
CROSBY           N/A     59  37  44 S9        29.86S
TIOGA            N/A     57  39  51 S12       29.92S
WATFORD CITY     N/A     66  39  37 S10       29.88S
BISMARCK       CLEAR     60  46  59 SE7       29.95R
GRAND FORKS    MOCLDY    59  29  31 S8        29.92F
FARGO          PTCLDY    57  28  33 S3        29.96S
BUFFALO SD       N/A     63  43  48 SE13      29.92S
RAPID CITY     CLEAR     56  43  61 SE6       30.01S
$$

REGIONAL REPORTS...WYOMING/IDAHO/WASHINGTON

CITY           SKY/WX    TMP DP  RH WIND       PRES   REMARKS
GILLETTE       CLEAR     52  43  71 SW7       30.01R
SHERIDAN       CLEAR     55  45  68 S6        29.96S
BUFFALO WY     CLEAR     57  40  52 W6        30.04R
CODY           CLOUDY    66  30  26 SW3       30.00S
YELLOWSTONE LA   N/A     42  31  64 CALM      30.21R
IDAHO FALLS    CLOUDY    65  36  34 S7        30.01S
SALMON         CLOUDY    64  39  39 SW3       29.87S
BOISE          CLOUDY    75  36  24 SE12      29.79F
SPOKANE        MOCLDY    69  46  43 NW6       29.83S
$$

REGIONAL REPORTS...ALBERTA

CITY           SKY/WX    TMP DP  RH WIND       PRES   REMARKS
EDMONTON       CLEAR     68  41  37 N13       29.72R
CALGARY        PTCLDY    72  32  23 W8        29.79R
LETHBRIDGE     PTCLDY    70  36  28 W16       29.81S
MEDICINE HAT   MOCLDY    70  45  40 W5        29.75R
CARDSTON         N/A     64  37  36 SW3         N/A
MILK RIVER       N/A     61  41  48 W6          N/A
ONEFOUR          N/A     66  39  37 NW3         N/A
$$

REGIONAL REPORTS...SASKATCHEWAN

CITY           SKY/WX    TMP DP  RH WIND       PRES   REMARKS
SWIFT CURRENT  CLEAR     68  34  28 S9        29.80S
REGINA         PTCLDY    72  30  21 SW8       29.77R
SASKATOON      PTCLDY    66  36  32 W7        29.71S
CYPRESS HILLS    N/A     63  36  36 S6          N/A
VAL MARIE        N/A     66  37  34 SE12        N/A
ROCKGLEN         N/A     68  36  30 SW6         N/A
ASSINIBOIA       N/A     72  37  28 CALM        N/A
$$




USA.gov is the U.S. government's official web portal to all federal, state and local government web resources and services.